Temperature
29 29 29 30 31 32 32 32 31 32 33 33 32 32 31 30 30 29 27 26 24 23 22 21 20 20 19 19 18 18 18 18 18 18 18 18 18 18 18 18 18 17 17 17
29 29 30 31 32 32 32 31 31 32 33 33 32 31 31 30 30 29 28 26 25 23 22 21 20 19 19 19 18 18 18 18 18 18 18 18 18 18 18 18 18 17 17 17
28 30 32 31 31 31 31 31 31 31 32 33 31 30 30 29 29 28 28 27 25 24 22 21 20 19 19 19 18 18 18 18 18 18 18 18 18 18 18 17 17 17 17 17
30 31 32 31 31 31 30 32 32 32 31 30 30 28 28 28 28 28 27 27 25 24 23 21 20 19 19 19 19 18 18 18 18 18 18 18 18 18 18 18 17 17 17 17
30 31 31 31 31 32 31 32 32 32 31 30 29 28 27 28 27 28 28 27 26 25 23 22 21 20 19 19 18 18 18 18 18 18 18 18 18 18 18 17 17 17 17 17
31 32 32 32 32 32 32 32 31 31 30 28 27 26 27 28 28 28 29 28 26 25 24 22 21 20 20 19 19 18 18 18 18 18 18 18 18 18 18 17 17 17 17 17
30 31 32 33 31 32 32 30 28 28 26 25 26 26 27 29 30 30 30 28 27 25 24 22 21 20 20 19 19 18 18 18 18 18 18 18 18 18 18 17 17 17 17 17
29 29 31 32 31 31 31 30 28 27 26 25 25 24 27 30 31 31 30 28 27 26 24 23 22 21 20 19 19 18 18 18 18 18 18 18 18 17 17 17 17 17 17 17
30 30 33 33 33 32 30 31 31 30 28 27 26 26 27 29 30 30 30 28 27 26 25 23 22 21 20 19 19 19 18 18 18 18 18 18 18 17 17 17 17 17 17 17
31 30 32 33 33 32 32 31 31 29 27 27 27 26 25 26 29 30 30 29 28 26 25 24 22 21 20 20 19 19 18 18 18 18 18 18 18 18 17 17 17 17 17 17
31 30 30 31 31 31 31 31 30 30 29 27 26 25 25 25 27 29 30 29 28 27 25 24 23 22 21 20 19 19 18 18 18 18 17 17 17 18 17 17 17 17 17 17
31 30 29 30 32 32 32 31 30 29 28 29 27 26 27 26 27 28 29 28 27 26 25 24 23 22 21 20 20 19 18 18 18 18 17 17 17 17 17 17 17 17 17 17
29 29 28 28 30 31 31 31 31 30 29 28 27 27 28 27 26 27 28 27 27 26 25 24 23 22 21 21 20 19 19 18 18 17 17 17 17 17 17 17 17 17 17 17
28 28 28 28 28 28 28 29 30 29 29 29 28 27 27 27 26 26 26 26 26 25 24 23 22 21 21 20 20 19 19 18 18 17 17 17 17 17 17 17 17 17 17 17
28 27 28 29 29 29 27 27 27 28 29 29 28 27 26 26 26 25 25 25 25 24 24 23 22 21 20 20 20 19 19 18 18 18 17 17 17 17 17 17 17 16 16 16
27 26 27 27 28 28 27 27 27 27 29 29 29 28 27 26 25 25 25 24 24 23 22 22 21 20 20 19 19 19 19 18 18 18 17 17 17 17 17 16 16 16 16 16
27 25 25 26 27 27 26 27 28 29 30 30 28 28 27 26 25 24 24 24 23 22 22 21 20 19 19 19 19 18 18 18 18 17 17 17 17 16 16 16 16 16 16 16
25 25 24 25 25 24 27 29 29 29 29 29 28 28 27 25 23 23 23 22 22 21 20 20 19 19 19 18 18 18 18 17 17 17 17 16 16 16 16 16 15 15 15 15
26 24 24 24 24 25 27 27 27 27 27 28 27 27 26 24 23 22 21 20 19 19 19 19 18 18 18 18 17 17 17 17 16 16 16 16 16 16 15 15 15 15 14 14
25 24 23 23 23 23 25 26 26 26 25 25 25 25 24 24 23 21 19 19 18 18 18 18 17 17 17 17 16 16 16 16 15 15 15 15 15 15 14 14 14 14 14 13
23 23 22 22 23 24 24 25 26 24 23 23 23 23 23 22 21 19 18 17 17 17 17 17 16 16 16 16 16 15 15 15 14 14 14 14 14 14 14 13 13 13 13 13
22 22 22 22 22 22 23 23 22 21 22 22 22 22 20 19 18 17 16 15 15 15 16 15 15 15 15 15 15 14 14 14 14 14 14 13 13 13 13 13 13 13 12 12
22 21 22 22 21 21 21 21 20 20 20 20 20 20 18 17 17 15 15 14 14 14 14 14 14 14 14 14 14 14 13 13 13 13 13 13 12 12 12 12 12 12 12 11
21 22 21 21 21 21 20 19 19 19 19 19 19 18 17 16 15 14 14 13 13 13 13 13 13 13 13 13 13 13 12 12 13 12 12 12 12 12 11 11 11 11 11 11
20 21 20 20 20 19 19 18 17 17 17 17 17 17 16 15 14 14 13 13 12 12 12 12 12 12 12 12 12 12 12 12 12 12 12 11 11 11 11 11 11 11 10 10
20 19 19 18 18 17 16 15 16 16 16 16 15 15 15 14 13 13 12 12 11 11 11 11 11 11 11 11 11 11 11 12 12 12 12 11 11 11 11 11 10 10 10 9
Wind_Speed
16 15 16 17 18 18 17 17 14 9 9 9 8 9 3 2 3 5 8 9 9 10 11 11 12 14 14 12 12 12 11 10 9 7 7 6 5 5 4 5 7 7 6 5
17 21 21 20 19 18 16 16 16 13 10 9 10 8 1 3 3 5 8 9 11 12 13 13 13 13 13 13 12 12 11 11 10 8 6 6 6 5 5 4 6 7 6 6
22 20 19 19 19 18 17 16 15 14 13 12 10 8 3 2 4 5 7 9 10 12 15 14 13 13 13 14 14 13 12 11 10 9 7 6 5 3 4 6 5 6 6 5
21 22 20 17 16 16 16 16 16 15 14 11 9 8 4 3 4 6 7 9 11 12 14 14 13 13 13 14 14 12 12 11 10 10 9 10 8 6 7 6 6 6 6 6
20 20 20 19 17 16 16 16 14 14 13 13 10 8 3 4 5 7 9 11 12 12 14 14 14 13 13 13 13 12 11 11 11 10 10 9 8 7 6 7 8 7 5 5
21 19 17 17 16 15 15 15 14 13 11 12 10 9 6 5 6 7 9 11 12 12 13 13 13 12 11 11 12 12 11 10 10 10 10 10 9 8 8 8 8 7 6 5
21 21 18 15 15 15 14 12 11 10 8 8 9 8 7 5 7 7 10 11 11 12 12 13 13 12 11 11 12 12 12 11 11 10 9 9 9 9 8 8 9 7 7 6
18 17 20 19 17 14 14 15 13 12 8 6 4 5 5 2 4 7 10 11 11 12 12 13 13 12 11 11 11 12 12 11 11 11 9 8 9 7 7 8 7 7 6 6
13 13 14 16 17 18 17 16 16 15 15 12 6 5 3 2 3 7 10 11 10 11 12 12 13 13 11 11 10 11 12 12 12 11 9 9 9 8 8 8 7 6 5 6
18 14 10 9 11 15 17 15 10 11 11 11 6 2 1 4 4 8 10 10 10 11 12 12 12 12 12 12 10 10 11 11 11 10 10 9 9 8 7 7 7 6 5 5
17 15 14 11 12 14 14 15 13 10 10 9 7 3 3 5 6 6 9 11 11 11 11 11 11 11 11 11 11 10 10 10 10 10 9 8 9 9 8 7 6 6 4 5
12 12 14 14 12 14 14 14 14 11 11 10 8 3 7 7 5 5 8 11 11 10 11 11 10 10 10 11 11 10 10 10 9 9 8 8 8 8 8 7 6 6 5 5
6 8 12 14 14 12 12 13 13 12 10 11 10 3 6 5 2 2 6 9 11 10 10 10 9 8 8 8 9 10 10 10 10 9 8 8 8 8 8 7 7 6 6 5
5 9 13 14 6 4 8 12 12 12 12 12 10 3 5 4 4 3 5 7 10 10 9 10 9 7 6 6 6 8 9 9 9 8 8 8 7 7 7 7 6 5 5 5
7 13 15 18 14 8 8 10 13 15 15 14 9 6 4 4 4 4 6 7 8 10 10 9 9 8 7 6 6 6 7 8 8 9 8 8 7 6 6 6 6 6 5 5
8 10 13 16 15 10 10 12 15 18 17 14 11 9 4 6 6 6 6 8 8 9 10 9 9 9 7 6 6 6 6 7 7 8 8 7 7 7 6 6 6 5 5 4
8 8 12 15 15 14 15 15 17 16 13 12 11 6 3 4 5 6 7 8 8 9 10 9 9 8 7 7 6 7 7 7 7 6 6 7 7 6 5 6 6 5 5 5
9 8 8 13 15 17 12 10 12 12 9 7 5 2 1 6 6 6 5 5 6 7 9 9 9 8 8 8 8 8 8 8 8 7 6 6 7 7 7 7 7 7 7 7
8 7 9 11 15 15 13 9 10 10 8 6 5 4 3 7 7 6 8 8 7 8 9 9 9 9 9 9 10 11 11 10 10 9 8 8 8 9 9 10 9 8 9 9
7 6 9 11 12 12 6 5 8 8 6 7 8 6 2 3 3 4 8 10 10 11 10 9 10 12 12 11 11 12 11 11 11 11 11 11 10 10 11 11 10 9 9 9
8 9 11 13 13 9 5 7 8 6 3 9 9 7 5 2 4 8 11 12 13 13 11 11 12 12 12 12 12 13 12 12 11 12 12 12 12 12 11 10 9 10 10 10
6 7 8 9 11 6 8 6 4 5 8 8 8 6 7 9 12 13 13 13 13 12 12 13 13 13 12 12 14 14 12 11 11 12 13 12 10 10 11 9 9 9 8 9
3 3 4 3 2 4 7 6 7 7 7 7 5 4 7 8 12 14 13 13 12 12 12 12 14 14 13 12 12 14 11 11 12 13 12 12 12 10 9 9 8 7 5 6
3 2 4 5 2 5 7 7 9 9 8 7 3 3 6 9 12 15 13 13 13 13 12 13 14 15 13 12 13 13 12 11 12 13 11 10 11 11 11 9 9 9 8 7
5 3 4 6 6 7 6 8 9 7 6 4 3 5 7 11 15 15 15 14 13 13 12 13 14 14 14 12 12 12 11 10 11 11 11 11 12 12 11 11 10 10 10 9
3 3 3 3 4 5 6 8 8 5 3 4 6 7 8 14 17 17 16 14 13 13 12 13 14 14 13 13 12 10 9 8 8 8 8 9 9 9 10 10 11 16 12 14
Wind_Direction
223 234 242 246 249 259 274 287 292 284 279 284 291 292 269 173 204 170 160 158 160 155 147 143 149 152 154 156 159 162 165 164 164 167 166 162 158 155 149 144 144 156 151 147
233 234 243 255 265 269 273 279 284 287 288 289 292 289 270 168 213 181 167 165 162 155 150 149 152 160 163 164 166 167 172 169 168 170 171 168 162 167 154 139 145 153 151 159
231 241 240 243 258 267 269 269 273 283 286 281 291 286 268 190 190 172 172 161 162 163 159 159 164 168 170 170 172 175 174 172 172 170 168 164 153 165 140 141 157 161 159 171
237 246 253 253 253 257 263 265 271 277 281 283 286 285 262 229 204 183 178 165 168 161 158 161 167 172 176 174 173 172 170 172 173 175 177 170 172 175 166 162 157 159 168 167
238 240 247 254 256 258 264 270 273 278 283 282 283 287 244 197 197 196 181 169 162 158 160 163 170 176 177 175 173 170 170 174 177 181 182 184 179 174 166 157 151 163 170 174
254 251 241 248 253 250 258 268 272 274 277 275 282 280 262 205 179 173 166 154 153 157 159 162 167 170 172 173 170 169 168 176 180 182 184 192 185 180 168 160 160 173 167 181
247 252 249 243 250 247 242 249 258 255 255 266 293 274 258 185 157 158 146 144 148 154 159 162 168 170 173 175 172 172 171 175 180 183 188 192 188 182 173 171 172 184 176 179
235 237 236 233 234 246 242 241 248 264 268 270 266 260 273 139 136 133 134 140 149 157 159 162 166 166 171 175 174 174 174 175 179 182 187 187 180 181 180 185 181 194 193 178
249 243 229 220 223 229 244 246 252 262 268 269 232 223 253 182 162 146 141 142 150 151 153 161 164 166 170 175 177 178 175 176 182 184 182 181 182 190 185 178 190 195 192 167
256 273 251 215 221 228 240 250 255 261 273 280 273 285 298 257 208 155 146 146 146 148 154 158 162 166 170 173 173 172 172 178 181 182 183 183 183 191 186 181 190 191 184 161
243 260 263 233 217 231 225 238 252 268 272 276 287 275 208 238 248 182 154 147 148 149 149 152 158 164 168 170 171 170 170 172 178 182 185 180 179 184 184 187 186 182 179 163
243 247 256 255 239 234 238 234 236 249 266 273 280 250 168 185 229 219 154 145 143 144 144 146 148 153 164 169 171 172 172 175 178 180 179 180 177 177 181 185 182 179 178 182
291 255 249 251 248 233 244 243 244 246 256 264 270 226 158 151 151 208 135 138 137 139 139 138 141 146 156 163 167 171 174 176 177 177 176 175 175 177 180 181 178 177 183 192
295 263 257 259 267 280 267 272 272 264 256 259 268 227 172 168 161 192 139 139 140 140 138 139 137 137 138 144 152 160 166 168 171 170 170 172 175 176 175 172 166 167 179 181
259 256 257 265 266 254 256 270 275 270 266 271 272 261 197 179 183 163 153 150 144 141 141 136 134 130 130 133 139 141 153 159 163 162 168 174 172 164 159 159 157 162 170 177
236 267 273 270 267 262 259 250 255 260 262 268 271 273 208 171 174 160 160 161 157 149 141 136 132 130 130 132 135 135 138 145 152 158 165 161 159 158 157 157 159 155 149 142
244 248 262 266 269 268 255 252 253 255 261 270 272 275 175 165 150 151 162 166 159 145 137 130 124 124 125 125 126 128 126 127 132 137 141 143 146 144 143 146 133 129 126 115
249 255 260 264 269 264 271 287 280 273 274 299 300 302 154 137 125 109 107 119 124 130 126 122 122 123 125 123 121 116 114 113 112 107 108 115 116 117 113 107 104 99 93 91
240 240 251 258 259 261 267 280 293 289 294 338 337 343 14 112 123 104 95 102 113 110 111 113 116 118 113 111 109 105 100 98 94 90 88 95 106 108 104 99 94 90 89 86
216 215 239 250 259 264 284 327 327 300 267 12 9 1 64 155 186 129 109 108 105 100 98 107 109 107 101 99 101 100 96 92 88 87 85 84 89 96 97 97 97 96 95 94
217 221 234 247 254 258 318 326 309 284 342 12 11 9 14 42 76 105 101 98 95 95 97 98 100 99 99 99 97 94 91 89 88 88 88 86 88 90 91 92 98 99 98 96
235 237 236 243 248 247 15 360 356 3 353 355 0 20 55 82 100 106 104 101 98 98 98 97 96 96 96 98 99 96 93 94 93 91 89 89 88 90 93 93 93 98 107 109
260 289 289 280 286 17 11 1 353 349 338 337 356 49 94 102 113 112 109 106 100 97 95 95 96 96 92 91 96 99 98 98 96 92 89 86 83 80 84 90 93 96 97 100
269 296 294 300 292 345 344 347 347 346 337 333 352 100 114 122 124 119 114 108 104 100 98 97 94 95 94 92 93 94 95 95 96 95 94 91 86 77 64 61 59 57 53 63
306 303 281 274 301 320 339 351 344 343 348 355 54 106 120 126 124 121 116 111 107 103 100 98 97 96 94 92 91 93 95 97 100 100 98 93 87 85 76 67 57 66 56 61
308 322 297 306 342 328 327 339 344 353 29 68 94 97 108 122 121 118 113 110 108 105 104 103 101 99 97 93 90 88 90 93 99 106 108 109 108 106 104 98 80 56 65 67
Height
1470 1472 1470 1463 1456 1454 1452 1452 1453 1447 1440 1441 1444 1445 1443 1447 1450 1454 1459 1463 1467 1471 1475 1477 1480 1484 1488 1492 1496 1500 1505 1508 1511 1515 1519 1522 1526 1529 1532 1534 1536 1538 1541 1542
1467 1467 1460 1454 1450 1448 1450 1454 1452 1444 1437 1440 1443 1443 1442 1444 1448 1452 1456 1461 1465 1469 1473 1477 1480 1484 1487 1490 1494 1499 1503 1506 1510 1514 1518 1522 1525 1528 1531 1533 1535 1537 1540 1542
1464 1456 1450 1451 1451 1452 1451 1452 1450 1448 1440 1438 1444 1449 1446 1446 1448 1452 1454 1459 1463 1467 1471 1476 1480 1483 1486 1489 1492 1497 1500 1505 1509 1513 1517 1521 1524 1527 1530 1532 1534 1536 1539 1541
1454 1449 1446 1447 1449 1449 1453 1443 1443 1444 1448 1451 1450 1467 1454 1451 1450 1450 1454 1457 1462 1465 1470 1474 1478 1482 1485 1488 1492 1495 1499 1503 1506 1511 1515 1518 1521 1524 1527 1530 1533 1535 1537 1539
1448 1443 1444 1446 1444 1443 1444 1438 1439 1442 1447 1453 1452 1463 1460 1449 1452 1449 1450 1454 1458 1464 1468 1473 1477 1481 1485 1488 1491 1494 1497 1501 1504 1508 1512 1516 1519 1523 1526 1529 1531 1534 1536 1538
1439 1435 1435 1437 1436 1437 1438 1440 1442 1444 1451 1469 1464 1468 1463 1448 1445 1443 1445 1450 1456 1461 1466 1471 1476 1480 1483 1487 1490 1492 1495 1498 1502 1506 1510 1513 1517 1520 1524 1526 1529 1532 1534 1537
1444 1436 1431 1432 1437 1436 1438 1451 1465 1471 1475 1478 1464 1467 1457 1437 1433 1436 1441 1447 1454 1460 1465 1470 1474 1478 1481 1485 1487 1490 1493 1496 1500 1504 1507 1511 1515 1518 1521 1524 1527 1530 1533 1535
1446 1444 1429 1427 1433 1439 1438 1444 1465 1477 1478 1476 1469 1473 1451 1433 1433 1435 1440 1446 1452 1458 1463 1468 1472 1476 1480 1483 1486 1488 1491 1494 1497 1501 1505 1508 1512 1515 1519 1522 1525 1528 1531 1533
1435 1435 1418 1418 1422 1429 1438 1438 1434 1447 1454 1463 1462 1457 1444 1435 1434 1435 1440 1445 1450 1455 1461 1466 1470 1474 1478 1481 1483 1486 1489 1492 1495 1498 1502 1506 1509 1513 1516 1520 1523 1527 1529 1532
1426 1434 1421 1417 1420 1423 1426 1429 1436 1447 1462 1469 1461 1461 1461 1448 1438 1435 1439 1444 1449 1454 1459 1464 1468 1472 1475 1479 1482 1484 1487 1489 1492 1496 1500 1503 1506 1510 1514 1517 1520 1524 1527 1530
1422 1433 1428 1421 1427 1429 1428 1432 1434 1438 1441 1460 1470 1468 1448 1446 1440 1437 1438 1442 1447 1452 1457 1462 1467 1471 1474 1477 1480 1483 1485 1488 1491 1494 1497 1501 1504 1507 1511 1515 1518 1521 1524 1527
1420 1426 1433 1425 1415 1414 1419 1425 1431 1446 1447 1444 1455 1458 1436 1439 1439 1437 1437 1441 1446 1451 1456 1461 1465 1469 1473 1476 1479 1481 1484 1487 1489 1492 1495 1499 1502 1505 1508 1512 1515 1518 1521 1524
1425 1430 1442 1440 1429 1419 1421 1420 1422 1427 1436 1443 1452 1454 1434 1436 1438 1439 1440 1442 1446 1451 1455 1460 1464 1468 1472 1475 1478 1480 1483 1485 1488 1491 1494 1497 1499 1502 1506 1509 1513 1516 1519 1522
1429 1432 1438 1444 1438 1431 1432 1428 1425 1429 1437 1439 1439 1441 1437 1435 1438 1440 1441 1444 1447 1451 1455 1459 1463 1467 1470 1473 1476 1479 1482 1485 1487 1490 1493 1495 1498 1500 1504 1507 1511 1514 1517 1519
1428 1434 1432 1427 1424 1426 1433 1434 1433 1433 1431 1434 1433 1435 1435 1434 1436 1439 1441 1445 1448 1451 1455 1459 1463 1466 1470 1473 1476 1478 1481 1484 1486 1489 1491 1494 1496 1499 1502 1505 1508 1511 1515 1517
1428 1435 1434 1432 1425 1427 1432 1432 1433 1431 1425 1424 1426 1430 1427 1431 1435 1439 1441 1445 1449 1451 1455 1459 1462 1465 1469 1472 1475 1478 1481 1483 1486 1488 1490 1493 1495 1498 1500 1503 1506 1510 1512 1515
1430 1437 1442 1441 1429 1428 1437 1428 1427 1424 1418 1420 1426 1426 1425 1430 1434 1439 1442 1445 1447 1451 1455 1459 1462 1465 1468 1472 1475 1478 1480 1483 1485 1487 1490 1492 1495 1497 1500 1502 1505 1508 1510 1513
1432 1437 1441 1441 1440 1451 1431 1417 1416 1415 1416 1417 1419 1423 1426 1430 1436 1440 1442 1446 1449 1452 1455 1458 1462 1465 1469 1472 1475 1478 1480 1482 1485 1487 1489 1491 1494 1496 1499 1502 1504 1507 1510 1512
1427 1434 1441 1442 1443 1438 1425 1419 1419 1421 1422 1420 1423 1425 1428 1432 1437 1442 1444 1447 1450 1453 1455 1458 1462 1466 1469 1473 1475 1478 1480 1483 1485 1487 1489 1491 1494 1496 1498 1501 1503 1506 1509 1510
1426 1432 1441 1442 1448 1448 1432 1422 1421 1423 1431 1428 1427 1429 1431 1433 1437 1444 1447 1447 1450 1453 1456 1460 1463 1466 1470 1473 1476 1479 1482 1484 1486 1489 1490 1492 1494 1496 1498 1501 1503 1506 1508 1510
1434 1436 1440 1443 1444 1437 1430 1426 1426 1438 1441 1434 1432 1433 1434 1435 1438 1445 1447 1449 1452 1455 1459 1462 1465 1468 1471 1475 1478 1480 1483 1486 1488 1491 1492 1494 1496 1498 1500 1502 1504 1507 1510 1512
1435 1438 1440 1440 1445 1445 1435 1431 1437 1441 1437 1436 1436 1436 1438 1440 1442 1446 1450 1452 1455 1458 1462 1465 1467 1470 1474 1477 1480 1482 1486 1488 1491 1493 1495 1497 1499 1501 1503 1505 1507 1509 1511 1513
1433 1436 1436 1438 1441 1438 1438 1439 1440 1439 1439 1439 1439 1439 1441 1444 1445 1449 1453 1456 1459 1462 1465 1468 1470 1474 1477 1480 1483 1485 1489 1492 1494 1496 1498 1500 1502 1504 1507 1509 1510 1512 1514 1516
1434 1434 1435 1437 1436 1438 1439 1440 1440 1440 1440 1439 1440 1441 1442 1445 1447 1451 1456 1459 1462 1465 1469 1471 1474 1477 1481 1484 1486 1489 1493 1495 1497 1499 1501 1504 1506 1508 1510 1512 1513 1514 1516 1518
1437 1436 1437 1439 1438 1439 1439 1440 1440 1439 1439 1439 1439 1441 1443 1446 1449 1453 1458 1462 1466 1469 1473 1475 1478 1481 1485 1488 1491 1494 1496 1499 1501 1503 1505 1507 1509 1511 1513 1515 1516 1517 1518 1519
1437 1439 1440 1441 1442 1443 1443 1442 1440 1439 1439 1440 1441 1443 1446 1448 1451 1456 1461 1465 1469 1473 1477 1480 1483 1486 1489 1492 1495 1498 1501 1503 1505 1507 1509 1511 1513 1514 1516 1517 1518 1520 1521 1522